Погода в Санине

Россия / Владимирская область     55°59′50″N   38°55′57″E
темп.,
°C
ветер,
м/с
пор.,
м/с
влажн.,
%
обл.,
%
осадки,
мм/ч
давл.,
гПа
погр.,
м
13 мая, чт
чт1300:00+12юв3109243 0.0 1019548
03:00+11ю259375 0.0 1020297
06:00+9ююв249547 0.0 1020216
09:00+14юв24625 0.0 1019653
12:00+18юв354490 0.0 10181309
15:00+20ю244018 0.0 10151891
18:00+17юз4763100 0.1 1015530
21:00+11ююз119187 0.1 101626
14 мая, пт
пт1400:00+9ю2593100 0.0 1017105
03:00+8ю11964 0.0 101813
06:00+10юв249129 0.0 1019123
09:00+15юв3571100 0.0 1018559
12:00+20ююв365773 0.0 10171347
15:00+21ю4665100 1.1 10161359
18:00+16юв4986100 2.8 1015339
21:00+15вюв31195100 7.6 1013309
15 мая, сб
сб1500:00+14вюв399899 1.3 1013216
03:00+13юв2698100 1.3 1012145
06:00+15в4995100 3.3 1010170
09:00+19юв51084100 3.4 1010576
12:00+22ю5879100 1.1 10091087
15:00+21ю487998 3.9 10081157
18:00+19ююз59760 1.2 1009938
21:00+15ю311910 2.1 1010373
16 мая, вс
вс1600:00+13ю310977 0.0 1010297
03:00+12ю3109710 0.0 1011309
06:00+13ююз311957 0.0 1011454
09:00+17ююз58759 0.0 1012838
12:00+20ююз586227 0.6 10121572
15:00+19ююз576645 1.4 10121288
18:00+19ююз48660 0.4 10121160
21:00+14ююз39910 0.4 1013209
17 мая, пн
пн1700:00+13ююз27960 0.0 1014163
03:00+12ююз259797 0.0 101597
06:00+13ююз2493100 0.0 1015128
09:00+19ююз236755 0.0 1016608
12:00+23ю1250100 0.0 10151137
15:00+24юв2346100 0.0 10141343
18:00+23в366278 0.0 1013308
21:00+17в379082 0.5 1013125